Wind_Speed
23 22 21 20 19 17 17 18 19 22 21 22 21 23 22 23 25 18 35 31 29 29 28 27 26 24 21 19 19 16 16 16 15 14 12 12 12 13 14 14 14 13 12
27 25 21 20 18 17 17 18 20 23 22 22 21 22 22 24 25 30 39 31 27 28 30 28 26 23 21 21 22 18 15 16 16 14 13 13 13 14 15 15 16 15 14
31 27 22 20 18 18 19 20 21 23 24 23 22 21 21 22 25 35 37 32 29 29 27 29 26 22 18 19 21 18 18 17 16 16 15 15 15 16 16 16 17 15 13
34 30 25 22 19 19 19 21 22 22 24 23 21 22 19 17 12 32 31 33 29 28 29 24 20 21 19 18 21 19 19 18 18 17 17 16 17 17 16 18 17 16 14
37 32 28 24 22 20 18 19 21 22 23 21 21 21 17 16 17 28 32 32 31 28 28 26 25 22 23 22 23 21 19 19 19 18 18 17 17 17 17 17 17 16 15
38 35 31 27 24 22 19 18 19 20 22 22 23 20 17 16 16 28 28 32 30 28 30 28 26 23 22 21 21 22 21 20 19 19 19 18 18 18 18 18 17 16 15
37 39 34 30 27 24 21 18 20 21 24 24 25 23 23 20 18 28 28 31 29 30 28 28 25 25 22 21 22 23 22 21 19 18 18 18 18 18 18 18 18 18 16
39 41 36 32 29 26 24 21 20 22 25 27 27 26 26 28 26 20 26 33 28 26 28 28 27 25 24 22 22 23 23 21 20 19 19 19 19 20 20 19 19 17 16
36 38 38 35 32 29 26 24 21 23 25 26 25 31 29 32 28 28 27 22 24 25 25 33 31 28 26 24 24 24 24 24 22 21 21 21 20 21 21 20 19 18 17
41 43 46 37 34 31 28 25 23 24 25 29 27 31 30 29 29 28 27 29 27 30 35 35 34 32 28 27 26 25 26 26 25 24 23 23 22 22 21 20 19 19 18
41 45 55 37 32 33 28 25 24 25 27 30 30 29 28 33 30 33 31 28 26 34 33 39 45 36 30 28 28 27 26 26 26 25 23 23 23 22 21 21 20 19 19
36 40 48 40 37 32 29 25 25 25 26 29 30 30 31 29 30 31 29 29 27 33 37 43 46 36 33 28 28 28 27 28 27 25 24 23 23 23 23 23 23 23 22
27 17 22 34 31 31 27 26 25 26 27 30 30 29 28 30 29 30 30 30 30 28 32 38 36 39 41 32 31 30 30 29 28 27 27 26 26 26 26 26 26 25 25
39 34 27 26 30 28 28 25 26 24 28 32 31 31 30 31 31 32 32 29 30 34 34 39 40 46 36 33 31 32 32 31 30 29 28 27 28 28 28 27 27 28 27
37 27 32 28 32 30 26 25 25 23 25 33 32 32 32 32 30 27 27 29 27 38 33 44 47 46 35 35 33 33 31 30 32 30 29 29 31 29 29 30 31 31 29
42 32 28 31 31 29 26 25 24 23 25 27 31 34 34 35 35 32 33 30 32 36 37 36 45 39 43 36 31 31 29 31 32 30 30 30 29 30 31 31 30 33 32
39 25 30 32 30 28 25 26 23 21 23 27 31 33 34 34 34 37 36 32 33 27 32 35 42 35 43 34 33 29 31 34 32 29 28 25 28 29 29 29 32 35 36
35 32 31 32 29 27 26 24 21 21 25 31 32 32 33 37 35 41 40 33 33 29 38 34 32 30 31 32 32 34 34 31 30 29 25 31 31 32 29 30 29 28 34
34 26 29 31 30 27 22 22 22 22 27 30 32 31 34 39 40 37 37 34 29 34 33 30 28 31 37 32 34 32 30 33 33 29 31 33 34 30 31 28 34 32 34
42 32 32 31 29 23 22 22 20 22 24 20 14 22 24 20 30 28 25 31 32 37 30 29 27 31 41 40 44 38 38 36 36 34 37 36 34 39 36 37 38 36 36
38 35 32 30 28 23 21 19 19 18 17 15 17 19 21 19 21 24 24 27 38 30 34 26 30 31 34 40 43 44 45 44 42 43 41 42 40 39 36 31 35 34 34
33 32 31 28 25 21 18 18 17 17 18 18 16 17 16 21 14 23 17 26 22 37 34 29 30 37 32 33 37 32 37 39 44 40 38 33 30 29 28 29 30 35 35
31 28 29 27 26 21 17 16 16 17 19 18 13 8 8 18 16 18 18 20 26 27 25 23 29 36 33 33 31 33 31 33 34 28 22 25 24 27 28 31 28 31 34
30 27 26 26 24 18 16 15 16 15 18 16 15 9 8 6 13 15 15 31 29 26 34 25 29 29 28 25 23 26 29 23 25 26 26 28 30 33 35 35 35 34 35
27 27 25 22 19 17 16 15 16 15 18 18 16 16 13 14 8 13 24 22 24 34 39 30 29 30 27 31 28 26 24 28 27 29 32 35 34 36 36 35 35 35 37
25 25 18 18 17 15 14 14 19 20 20 18 21 17 19 21 17 18 23 27 25 26 25 33 29 36 32 32 34 28 30 34 35 39 38 38 35 33 36 40 41 41 39
Wind_Direction
266 270 270 269 264 260 256 252 252 255 253 253 255 256 264 266 266 243 200 205 206 205 208 213 217 218 228 238 240 239 234 226 228 231 229 226 219 215 208 198 195 192 189
259 264 266 266 265 261 256 251 247 248 249 250 254 261 264 266 245 224 199 204 205 210 207 213 217 224 238 244 237 246 232 227 229 228 228 224 218 210 208 201 197 198 196
252 257 256 257 262 264 260 252 247 247 248 248 256 261 265 264 257 228 196 203 200 207 215 210 213 223 233 236 245 238 227 228 229 226 224 218 214 214 207 201 200 202 205
248 249 248 250 257 265 267 259 251 246 248 250 251 257 259 245 263 223 205 202 201 210 215 226 212 224 240 237 238 238 230 231 229 226 222 217 210 211 208 206 204 204 207
240 243 243 245 252 263 271 266 254 249 246 251 250 251 254 245 255 192 203 198 199 208 221 230 240 241 248 241 243 240 233 232 232 229 223 215 211 210 209 211 211 212 215
234 237 239 240 248 257 268 270 259 250 246 239 244 239 240 245 246 222 211 199 202 210 220 231 232 245 244 242 236 237 238 234 232 230 223 214 210 210 210 211 213 218 223
235 235 237 238 244 254 261 265 256 248 246 235 239 234 231 238 221 215 220 212 211 217 220 223 233 243 244 239 234 232 234 235 233 231 224 218 215 215 217 216 216 219 225
232 237 236 238 242 249 255 266 261 254 251 237 242 232 232 228 236 231 220 221 223 229 229 233 236 241 243 239 232 232 235 232 230 225 222 219 219 218 216 218 219 224 231
232 240 234 238 241 248 254 265 264 260 253 249 244 234 233 230 231 232 225 234 241 235 234 233 236 242 244 238 231 228 230 229 222 219 220 223 222 224 219 219 224 227 233
237 235 226 232 238 245 251 261 265 264 252 244 242 241 229 241 240 237 237 234 239 229 254 236 241 238 241 236 232 228 228 225 221 217 220 226 224 225 224 224 228 233 238
244 241 243 232 236 241 249 260 267 265 251 240 239 238 236 241 245 237 241 241 251 241 248 246 247 237 238 235 231 227 227 226 220 220 221 225 227 226 225 227 230 234 237
248 257 249 211 223 238 247 260 267 263 247 239 238 240 236 237 246 242 251 251 256 237 263 239 225 232 230 234 229 224 223 223 222 223 221 223 227 228 229 229 232 234 238
222 210 200 220 228 238 248 259 267 259 242 236 235 236 237 241 239 242 251 254 254 252 239 219 228 232 244 225 229 222 221 221 223 221 221 222 226 228 229 231 234 238 239
231 239 238 235 232 240 249 262 266 253 243 234 234 237 238 237 241 242 250 256 256 256 251 250 244 244 226 225 226 222 221 222 219 221 223 227 230 231 234 237 240 242 245
229 235 236 235 232 240 251 264 264 255 240 241 238 240 242 237 236 240 251 255 258 254 258 242 242 234 211 223 226 226 224 227 225 221 225 231 235 236 239 241 242 244 250
228 230 233 226 231 243 253 264 259 250 247 243 240 242 242 241 238 244 255 253 261 254 255 246 223 239 215 218 220 224 224 228 226 224 227 235 241 245 246 245 250 256 258
238 224 229 228 233 243 254 258 254 251 249 245 245 245 247 249 247 256 254 253 256 252 234 218 232 243 210 210 220 216 219 225 229 231 236 242 246 248 249 253 257 259 260
236 239 225 228 234 241 252 255 253 253 254 251 246 251 251 252 245 252 259 242 250 232 225 236 241 216 207 215 219 221 224 230 231 231 237 243 246 243 248 255 262 268 257
222 232 229 231 234 240 250 252 252 256 260 252 248 254 258 266 253 250 245 243 239 233 230 238 234 220 200 211 213 217 226 236 226 229 233 233 241 248 247 262 261 266 259
223 235 235 229 231 238 245 247 255 262 263 249 252 260 262 252 242 237 234 235 228 214 237 232 218 212 210 216 223 223 224 234 226 232 241 241 238 244 247 259 262 261 261
212 226 227 224 230 233 238 247 253 262 247 236 253 265 268 233 238 223 241 229 209 227 226 218 210 217 211 217 220 227 232 231 241 243 245 249 253 253 262 260 255 254 252
218 224 222 222 226 228 227 239 257 261 245 235 254 274 271 231 235 218 224 227 248 221 226 226 220 206 235 231 232 243 233 228 237 247 256 257 257 253 252 261 250 254 258
213 214 215 213 220 221 224 236 249 251 240 234 250 279 303 235 239 238 229 235 219 227 225 224 231 213 236 238 241 244 242 255 253 243 245 244 248 254 255 253 258 257 259
200 206 209 212 215 213 222 232 251 259 231 224 232 246 257 277 226 243 235 235 244 225 228 232 229 228 234 235 237 240 235 246 234 234 241 252 253 255 256 258 261 261 263
191 205 211 214 214 224 226 226 236 236 230 226 229 238 247 261 250 208 221 232 226 220 236 237 223 236 237 237 246 238 235 245 237 250 252 253 257 258 260 256 266 278 272
191 194 212 221 227 233 236 233 234 234 238 236 227 223 238 242 241 233 242 236 248 245 236 243 243 241 250 235 252 244 237 237 244 245 248 253 252 257 258 268 270 271 274
Height
3127 3127 3127 3127 3126 3125 3126 3126 3126 3127 3128 3129 3131 3131 3131 3132 3133 3135 3138 3143 3144 3146 3152 3154 3158 3160 3163 3164 3166 3167 3168 3170 3172 3173 3175 3176 3177 3178 3180 3181 3184 3186 3187
3121 3122 3122 3123 3122 3121 3121 3121 3122 3123 3123 3124 3125 3126 3126 3127 3126 3128 3133 3137 3140 3143 3146 3151 3155 3158 3160 3161 3162 3164 3166 3167 3169 3170 3172 3173 3174 3175 3178 3179 3181 3184 3185
3115 3117 3117 3118 3118 3117 3116 3115 3117 3118 3118 3118 3120 3121 3122 3122 3120 3121 3127 3133 3136 3141 3144 3145 3150 3154 3156 3158 3159 3160 3161 3163 3165 3167 3168 3169 3171 3173 3175 3177 3179 3181 3183
3109 3111 3112 3113 3114 3113 3111 3110 3111 3112 3112 3114 3116 3117 3118 3117 3115 3116 3121 3126 3133 3139 3142 3145 3144 3150 3152 3154 3156 3157 3159 3160 3162 3163 3164 3166 3167 3170 3172 3174 3176 3178 3180
3101 3104 3106 3107 3108 3109 3108 3106 3105 3106 3107 3110 3112 3113 3113 3114 3115 3109 3118 3124 3130 3134 3139 3141 3144 3146 3148 3150 3152 3154 3155 3157 3159 3160 3161 3163 3165 3167 3169 3172 3174 3176 3178
3091 3096 3099 3101 3102 3103 3103 3102 3100 3101 3102 3105 3106 3108 3109 3109 3110 3109 3112 3116 3124 3129 3134 3137 3140 3142 3144 3145 3147 3150 3152 3153 3155 3157 3159 3160 3162 3164 3166 3169 3171 3174 3176
3084 3088 3092 3094 3096 3097 3098 3097 3095 3095 3095 3099 3101 3103 3104 3106 3105 3109 3110 3114 3119 3124 3128 3131 3135 3137 3138 3141 3143 3146 3147 3150 3151 3154 3156 3158 3159 3161 3164 3166 3168 3170 3172
3076 3080 3085 3087 3090 3090 3091 3091 3090 3090 3090 3092 3093 3098 3100 3103 3104 3105 3106 3111 3115 3118 3122 3126 3130 3132 3134 3136 3138 3141 3143 3145 3147 3150 3152 3154 3156 3158 3159 3162 3165 3167 3169
3067 3073 3077 3081 3083 3085 3084 3085 3085 3084 3085 3086 3087 3091 3092 3096 3098 3101 3104 3106 3110 3114 3117 3120 3124 3127 3129 3131 3132 3135 3138 3140 3142 3145 3148 3150 3152 3155 3156 3159 3161 3163 3165
3059 3064 3068 3072 3075 3078 3078 3078 3077 3077 3078 3079 3080 3084 3087 3091 3093 3097 3100 3104 3106 3108 3110 3114 3117 3121 3123 3125 3127 3130 3132 3135 3138 3140 3142 3145 3147 3150 3153 3155 3158 3160 3161
3051 3055 3049 3053 3065 3069 3071 3071 3070 3070 3071 3073 3074 3078 3081 3084 3087 3090 3094 3099 3101 3102 3105 3107 3109 3113 3117 3120 3122 3125 3127 3131 3132 3135 3137 3140 3143 3146 3148 3151 3153 3155 3157
3044 3040 3040 3053 3057 3060 3064 3064 3064 3063 3064 3066 3068 3071 3074 3078 3081 3084 3089 3091 3094 3093 3094 3095 3099 3105 3110 3114 3116 3119 3121 3125 3128 3130 3132 3135 3138 3141 3143 3146 3147 3149 3151
3036 3039 3042 3045 3048 3054 3057 3057 3056 3057 3057 3060 3062 3064 3068 3072 3075 3079 3081 3083 3085 3088 3087 3088 3093 3098 3101 3107 3110 3112 3115 3118 3122 3124 3127 3129 3132 3135 3137 3139 3142 3144 3145
3031 3033 3037 3040 3043 3047 3049 3049 3049 3049 3051 3053 3055 3059 3062 3066 3069 3072 3074 3076 3077 3078 3081 3084 3087 3090 3094 3100 3104 3106 3108 3112 3115 3118 3121 3124 3127 3129 3131 3134 3137 3138 3139
3021 3026 3030 3033 3037 3040 3041 3042 3042 3042 3044 3047 3048 3052 3055 3059 3062 3064 3066 3069 3070 3070 3070 3074 3077 3081 3087 3093 3097 3099 3103 3107 3110 3111 3115 3118 3121 3123 3126 3127 3129 3132 3133
3010 3014 3021 3026 3029 3032 3034 3035 3035 3036 3037 3039 3042 3045 3049 3051 3054 3056 3058 3059 3061 3062 3063 3065 3069 3074 3078 3086 3089 3094 3098 3101 3103 3105 3108 3112 3115 3118 3120 3121 3124 3126 3127
3003 3004 3013 3018 3022 3026 3028 3029 3029 3029 3030 3033 3036 3038 3040 3042 3044 3046 3048 3051 3052 3052 3055 3060 3064 3067 3071 3079 3084 3087 3089 3093 3097 3100 3104 3106 3109 3111 3113 3115 3117 3118 3119
3000 3004 3006 3011 3015 3019 3022 3022 3021 3023 3025 3027 3029 3030 3031 3033 3033 3036 3038 3039 3043 3046 3050 3054 3057 3060 3067 3073 3078 3080 3082 3087 3091 3094 3096 3099 3102 3104 3105 3107 3108 3108 3109
2993 2996 3000 3005 3009 3013 3014 3015 3016 3017 3018 3019 3020 3020 3020 3021 3022 3025 3029 3032 3035 3040 3044 3048 3050 3054 3061 3066 3069 3073 3077 3081 3084 3087 3090 3092 3093 3095 3097 3097 3099 3100 3101
2986 2990 2994 2999 3003 3005 3007 3009 3010 3011 3011 3011 3012 3013 3011 3009 3012 3015 3020 3023 3028 3034 3037 3041 3045 3049 3054 3059 3064 3068 3071 3074 3076 3078 3081 3083 3084 3086 3087 3088 3089 3091 3092
2979 2984 2988 2993 2997 2999 3001 3004 3004 3005 3006 3006 3007 3007 3004 3006 3007 3010 3013 3016 3021 3025 3031 3035 3040 3043 3048 3052 3056 3060 3064 3066 3068 3070 3072 3073 3075 3076 3077 3079 3079 3082 3083
2972 2976 2982 2986 2990 2993 2994 2996 2998 2999 2999 3001 3001 3000 2997 3000 3001 3004 3008 3011 3015 3020 3024 3029 3034 3038 3043 3046 3050 3052 3055 3056 3058 3061 3063 3064 3065 3066 3069 3069 3071 3073 3074
2965 2971 2974 2978 2983 2987 2988 2989 2992 2994 2995 2996 2996 2995 2996 2995 2996 3000 3003 3007 3011 3016 3019 3025 3029 3033 3036 3039 3042 3044 3046 3048 3049 3051 3053 3055 3057 3058 3059 3060 3062 3063 3064
2957 2965 2968 2972 2976 2979 2983 2984 2986 2989 2990 2992 2992 2993 2993 2993 2994 2995 2998 3003 3007 3010 3014 3019 3022 3026 3028 3031 3034 3036 3039 3041 3042 3044 3046 3047 3049 3050 3050 3051 3053 3053 3053
2948 2957 2962 2967 2971 2974 2976 2979 2981 2983 2985 2988 2989 2989 2990 2992 2994 2995 2999 3001 3003 3008 3010 3012 3015 3019 3021 3024 3026 3029 3031 3034 3034 3036 3038 3040 3040 3040 3040 3041 3041 3041 3042
2945 2953 2958 2962 2965 2968 2971 2973 2975 2978 2979 2982 2984 2985 2986 2988 2990 2993 2996 2997 2999 3002 3005 3007 3010 3012 3014 3017 3019 3021 3023 3025 3026 3027 3028 3029 3028 3030 3030 3031 3030 3030 3030